Tracking 17264 objects as of 1-September-2015
HD Live streaming from Space Station

CZ-3C R/B

Track CZ-3C R/B now!
10-day predictions
CZ-3C R/B is classified as:


NORAD ID: 36591
Int'l Code: 2010-024B
Perigee: 201.1 km
Apogee: 20,722.7 km
Inclination: 20.7 °
Period: 362.2 minutes
Semi major axis: 16832 km
RCS: 15.0139 m2 (large)
Launch date: June 2, 2010
Source: People's Republic of China (PRC)

Note: This is a ROCKET BODY
Your satellite tracking list
Your tracking list is empty





NASA's NSSDC Master Catalog

Two Line Element Set (TLE):
1 36591U 10024B   15243.87643047  .00032053 -56962-6  90891-3 0  9993
2 36591  20.6803 111.2563 6095655 352.7218  25.1917  3.97524773 58665

Source of the keplerian elements: AFSPC

N2YO: 272